Content
SEND FEEDBACK

Daily
Averages
Monthly
Summary
United States of America

SOUTH LAKE TAHOE, CALIFORNIA


Home > North America > United States > California
Elevation: 6263 feet     Latitude: 38 53N     Longitude: 119 59W

WEATHER
 
SELECT A DAY
Number of Records: 178,583;   Date Range: 1/1/95 - 12/17/14
 
SHARE

PRINT THIS DATA

[ ← Previous Day ]
WEATHER ALMANAC - FEBRUARY 11, 2013
[ Next Day → ]
[ °C ]   °F
Weather ElementAverageHighLow
Temperature28 °F39.9 °F (3:53 pm)19 °F (7:53 am)
Dewpoint10.1 °F15.1 °F (5:53 pm)7 °F (10:53 am)
Humidity49.4 %71 % (11:53 pm)28 % (12:53 pm)
Barometer30.17 in30.29 in (11:53 pm)30.05 in (1:53 am)
Wind Speed2.3 mph11.5 mph (11:53 am)
Wind Gust19.6 mph (2:53 am)
Weather ElementAverage
Visibility10 mi
Wind DirectionNNE (20.4 °)

Weather ElementTotal
Precipitation---
Heating Degree Days35.6 (Base 65)
Averaged from 23 records on February 11, 2013
WEATHER CONDITIONS BREAKOUT
WIND DIRECTION BREAKOUT
WEATHER BY HOUR - FEBRUARY 11, 2013
[ °C ]   °F
Local TimeTemperatureDewpointHumidityBarometerVisibilityWind DirectionWind SpeedGust SpeedPrecipitationEventsConditions
1:53 AM24.1 °F8.1 °F51 %30.05 in10.0 miVariable3.5 mphClear
2:53 AM26.1 °F8.1 °F47 %30.05 in10.0 miNNE (30°)5.8 mph19.6 mphClear
3:53 AM25.0 °F9.0 °F51 %30.06 in10.0 miVariable3.5 mphClear
4:53 AM21.0 °F10.0 °F63 %30.10 in10.0 miCalmClear
5:53 AM23.0 °F9.0 °F55 %30.11 in10.0 miCalmClear
6:53 AM19.9 °F10.0 °F65 %30.16 in10.0 miCalmClear
7:53 AM19.0 °F9.0 °F65 %30.19 in10.0 miSouth (190°)4.6 mphClear
8:53 AM25.0 °F9.0 °F51 %30.17 in10.0 miCalmClear
9:53 AM30.9 °F8.1 °F38 %30.16 in10.0 miVariable3.5 mphClear
10:53 AM34.0 °F7.0 °F32 %30.17 in10.0 miVariable4.6 mphClear
11:53 AM35.1 °F7.0 °F31 %30.15 in10.0 miNNE (20°)11.5 mph17.3 mphClear
12:53 PM37.9 °F7.0 °F28 %30.14 in10.0 miVariable3.5 mphClear
1:53 PM37.0 °F8.1 °F30 %30.14 in10.0 miCalmClear
2:53 PM39.0 °F9.0 °F29 %30.13 in10.0 miCalmClear
3:53 PM39.9 °F10.0 °F29 %30.14 in10.0 miNNE (20°)3.5 mphClear
4:53 PM34.0 °F14.0 °F44 %30.19 in10.0 miCalmClear
5:53 PM30.0 °F15.1 °F54 %30.21 in10.0 miCalmClear
6:53 PM28.0 °F12.9 °F53 %30.26 in10.0 miCalmClear
7:53 PM26.1 °F14.0 °F60 %30.28 in10.0 miCalmClear
8:53 PM25.0 °F12.9 °F60 %30.28 in10.0 miVariable3.5 mphClear
9:53 PM23.0 °F12.0 °F63 %30.27 in10.0 miCalmClear
10:53 PM21.9 °F12.0 °F66 %30.27 in10.0 miCalmClear
11:53 PM19.0 °F10.9 °F71 %30.29 in10.0 miSSW (210°)4.6 mphClear
Hourly data recorded from KTVL, located miles away from South Lake Tahoe, California







STORIES FROM OUR PARTNERS